Location: Columbus
(35.2256°N, 82.1549°W)
Time: 11:05:20
(UTC-04:00)

Envisat - Pass Details

Date: 20 July 2025
Orbit: 761 x 762 km, 98.4° (Epoch: 10 April)

Event Time Altitude Azimuth Distance (km) Brightness Sun altitude
Rises 03:31:43 0° 23° (NNE) 3,226 7.5 -27.7°
Reaches altitude 10° 03:34:14 10° 33° (NNE) 2,296 6.5 -27.4°
Maximum altitude 03:38:47 33° 97° (E) 1,254 4.2 -26.9°
Enters shadow 03:39:55 30° 124° (ESE) 1,342 4.2 -26.8°
